Regional Weather Roundup
Issued by NWS Charleston, WV

Home | Current Version | Previous Version | Graphics & Text | Print | Product List | Glossary On
Versions: 1 2 3 4 5 6 7 8 9 10 11 12 13 14 15 16 17 18 19 20 21 22 23 24 25 26 27 28 29 30 31 32 33 34 35 36 37 38 39 40 41 42 43 44 45 46 47 48 49 50
312
ASUS41 KRLX 310410
RWRRLX
West Virginia Regional Weather Roundup
National Weather Service Charleston WV
1200 AM EDT TUE MAY 31 2016

Note: "fair" indicates few or no clouds below 12,000 feet with no
significant weather and/or obstructions to visibility.

WVZ003-310500-
Northern Panhandle of West Virginia

CITY           SKY/WX    TMP DP  RH WIND       PRES   REMARKS
WHEELING         N/A     69  56  62 CALM      30.01S
$$

WVZ009-310500-
Northwest West Virginia

CITY           SKY/WX    TMP DP  RH WIND       PRES   REMARKS
PARKERSBURG      N/A     64  61  90 CALM      30.02S
$$

WVZ006-310500-
Western West Virginia

CITY           SKY/WX    TMP DP  RH WIND       PRES   REMARKS
HUNTINGTON       N/A     66  62  87 CALM      29.99F
$$

WVZ015-310500-
West Central West Virginia

CITY           SKY/WX    TMP DP  RH WIND       PRES   REMARKS
CHARLESTON       N/A     67  62  84 CALM      30.00S
$$

WVZ022-031-310500-
North Central West Virginia

CITY           SKY/WX    TMP DP  RH WIND       PRES   REMARKS
CLARKSBURG       N/A     64  63  96 CALM      30.01S
MORGANTOWN       N/A     67  57  70 CALM      30.02S
$$

WVZ025-035-042-045-310500-
Southern West Virginia

CITY           SKY/WX    TMP DP  RH WIND       PRES   REMARKS
BECKLEY          N/A     63  59  87 CALM      30.07S
LOGAN            N/A     70  63  78 CALM      30.03S
BLUEFIELD        N/A     67  57  70 N5        30.09F
LEWISBURG        N/A     62  60  92 CALM      30.06S
$$

WVZ047-310500-
Northern Mountains of West Virginia

CITY           SKY/WX    TMP DP  RH WIND       PRES   REMARKS
ELKINS         MOCLDY    61  57  87 CALM      30.06S
$$

WVZ052-310500-
Eastern Panhandle of West Virginia

CITY           SKY/WX    TMP DP  RH WIND       PRES   REMARKS
MARTINSBURG    MOCLDY    68  64  87 CALM      29.98S
PETERSBURG       N/A     64  64  98 CALM      30.02F FOG
$$




USA.gov is the U.S. government's official web portal to all federal, state and local government web resources and services.